Regional Weather Roundup
Issued by NWS Albany, NY

Home | Current Version | Previous Version | Text Only | Print | Product List | Glossary On
Versions: 1 2 3 4 5 6 7 8 9 10 11 12 13 14 15 16 17 18 19 20 21 22 23 24 25 26 27 28 29 30 31 32 33 34 35 36 37 38 39 40 41 42 43 44 45 46 47 48 49 50
094
ASUS41 KALY 301010
RWRALY

NEW YORK STATE HOURLY WEATHER ROUNDUP
NATIONAL WEATHER SERVICE ALBANY NY
600 AM EDT FRI SEP 30 2016

NOTE: "FAIR" INDICATES FEW OR NO CLOUDS BELOW 12,000 FEET WITH NO
SIGNIFICANT WEATHER AND/OR NO OBSTRUCTIONS TO VISIBILITY.

NYZ032-033-038>043-046>054-057>066-NYZ062>081-082-084-301100-
EAST


CITY           SKY/WX    TMP DP  RH WIND       PRES   REMARKS
ALBANY         CLOUDY    54  42  64 NE6       30.44S
GLENS FALLS    CLOUDY    53  41  63 N7        30.45R
POUGHKEEPSIE   CLOUDY    55  46  71 NE9       30.38S
NEWBURGH       PTCLDY    55  48  76 E14       30.38S
MONTGOMERY     CLOUDY    56  46  69 NE13      30.36F
WHITE PLAINS   MOCLDY    56  48  74 NE10G26   30.32F
ISLIP          CLOUDY    60  53  77 NE20G32   30.29F
NEW YORK CITY  CLOUDY    61  54  77 NE26G40   30.29F
CENTRAL PARK   CLOUDY    58  49  72 E12G23    30.32F
$$

NYZ005>009-017-018-044>046-055-056-301100-
CENTRAL


CITY           SKY/WX    TMP DP  RH WIND       PRES   REMARKS
FULTON         CLOUDY    57  43  59 VRB6      30.37S
SYRACUSE       MOCLDY    57  44  60 E7        30.37R
ROME           CLOUDY    54  44  69 E9        30.42R
ELMIRA         CLOUDY    55  45  68 NE7       30.32S
BINGHAMTON     CLOUDY    48  45  89 E7        30.33S
MONTICELLO     CLOUDY    48  43  81 E12G22    30.37R
$$

NYZ026>034-041>043-087-301100-
NORTH


CITY           SKY/WX    TMP DP  RH WIND       PRES   REMARKS
WATERTOWN      PTCLDY    51  47  86 NE7       30.41R
FORT DRUM      NOT AVBL
OGDENSBURG     FAIR      52  47  81 NE5       30.44R
MASSENA        CLOUDY    52  45  77 E6        30.46R
SARANAC LAKE   CLOUDY    46  43  89 CALM      30.43R
PLATTSBURGH    CLOUDY    48  45  89 CALM      30.46S
$$

NYZ001>004-010>016-019>021-085-301100-
WEST


CITY           SKY/WX    TMP DP  RH WIND       PRES   REMARKS
NIAGARA FALLS  CLOUDY    59  48  67 E13       30.29S
BUFFALO        CLOUDY    57  49  74 E12       30.29S
DUNKIRK        CLOUDY    57  52  83 NE7       30.25S
JAMESTOWN      CLOUDY    54  48  82 E5        30.25R
WELLSVILLE     CLOUDY    52  48  86 E13       30.31R
ROCHESTER      CLOUDY    58  48  69 E10       30.34S
PENN YAN       CLOUDY    55  52  89 CALM      30.34S
$$

             KEY
       WCI = WIND CHILL INDEX
       VSB = VISIBILITY
       HX  = HEAT INDEX
$$




USA.gov is the U.S. government's official web portal to all federal, state and local government web resources and services.